Location: Unspecified
(46.0725°N, 13.7344°E)
Time: 16:25:18
(UTC+01:00)

Cosmos 2058 - Pass Details

Date: 27 October 2019
Orbit: 562 x 584 km, 82.5° (Epoch: 20 November)

Event Time Altitude Azimuth Distance (km) Brightness Sun altitude
Rises 18:46:14 0° 344° (NNW) 2,816 6.7 -19.1°
Reaches altitude 10° 18:48:31 10° 338° (NNW) 1,909 5.8 -19.5°
Maximum altitude 18:52:30 43° 267° (W) 825 4.2 -20.2°
Drops below altitude 10° 18:56:26 10° 196° (SSW) 1,884 5.7 -20.9°
Sets 18:58:40 0° 190° (S) 2,774 6.5 -21.3°
